Wind_Speed
35 35 36 36 36 37 38 39 39 39 40 42 43 44 45 47 47 47 48 49 50 51 51 53 54 55 55 56 56 57 58 58 59 60 60 60 59 59
36 36 37 37 38 38 39 40 40 41 41 42 44 45 46 47 48 48 49 49 50 51 52 54 55 56 56 57 57 58 59 60 60 60 60 59 59 60
37 37 38 38 39 39 40 40 41 42 42 42 44 45 47 48 48 48 49 50 51 52 53 55 56 56 57 58 59 59 60 60 61 61 60 60 60 61
38 38 39 39 40 40 40 41 42 43 43 42 44 45 46 47 48 48 49 50 51 52 54 55 56 57 58 59 60 61 61 61 61 60 60 61 61 61
38 39 39 40 40 40 41 41 42 43 43 43 43 45 46 47 47 48 49 50 51 53 55 56 56 57 59 60 61 62 62 62 61 61 61 61 62 62
39 39 40 41 41 41 41 42 42 42 43 43 44 45 46 47 48 48 49 51 52 53 55 56 57 59 60 61 62 62 61 61 60 61 61 62 62 61
39 40 41 41 41 41 41 41 42 42 43 44 44 45 46 47 48 49 49 51 52 53 55 57 59 60 60 61 62 62 61 61 61 61 61 61 61 60
40 40 41 40 40 41 41 42 42 43 44 45 45 45 46 47 48 48 50 50 52 54 56 57 59 60 60 61 62 61 61 61 60 59 59 60 59 57
40 40 41 40 41 41 41 42 42 42 43 44 44 44 45 46 48 49 50 51 53 54 56 58 59 60 61 62 61 61 60 59 58 58 58 58 56 55
40 40 40 40 40 40 41 41 41 42 42 42 43 44 45 46 47 49 50 52 53 55 57 58 58 60 61 62 61 60 58 58 57 57 56 55 54 53
41 40 40 40 39 40 40 40 40 41 42 42 42 43 45 46 47 49 50 52 54 56 57 58 58 59 60 60 59 57 56 56 56 55 54 53 52 52
40 40 39 39 39 39 39 39 39 40 40 41 42 43 45 46 47 49 51 52 54 55 56 57 58 59 57 56 56 55 55 55 54 53 52 52 52 50
38 39 38 38 37 37 37 38 38 39 39 41 42 43 44 46 47 49 50 52 54 55 56 57 57 57 56 53 53 54 53 53 52 52 52 52 50 49
37 38 37 37 37 37 37 37 37 38 39 40 41 42 44 45 47 49 50 53 54 55 56 56 55 54 53 52 51 51 52 52 51 52 52 51 48 46
36 36 36 36 36 36 36 37 37 38 38 39 40 42 43 45 46 48 51 53 54 55 55 54 54 52 52 51 50 49 49 50 51 51 50 48 45 43
36 36 35 35 36 36 36 37 37 37 38 39 40 41 43 44 46 48 50 52 53 53 53 53 52 50 49 50 50 50 50 49 50 49 48 45 42 40
36 35 35 35 35 35 35 35 35 36 37 38 40 41 43 45 47 48 49 50 51 51 50 50 49 49 49 49 49 50 50 50 49 47 44 42 39 38
34 34 33 33 33 34 34 34 34 35 36 38 40 42 43 45 47 48 48 49 49 48 47 47 47 47 48 49 49 49 49 48 46 44 41 39 37 35
33 33 33 33 32 32 32 33 33 35 36 38 40 42 43 45 46 47 47 47 46 46 46 46 46 46 47 48 48 48 47 45 42 40 39 37 34 33
33 33 32 32 32 32 32 32 33 35 36 38 40 41 43 44 45 45 45 45 45 45 45 45 46 46 46 46 45 45 44 41 39 38 37 35 34 32
32 32 32 32 31 31 31 32 33 34 36 38 39 41 42 43 43 43 44 44 44 44 44 45 45 45 44 43 43 42 41 39 37 35 34 32 31 30
32 31 31 31 30 30 30 30 32 34 36 37 39 40 41 41 42 43 43 43 44 44 44 44 43 42 41 40 40 39 39 38 36 34 31 29 27 25
31 30 30 29 28 29 29 30 32 33 35 36 38 39 40 40 41 42 43 43 43 43 43 42 40 39 38 38 37 37 36 35 34 32 29 27 25 24
Wind_Direction
264 267 271 274 277 281 283 287 290 292 295 297 299 301 304 306 308 308 309 310 311 312 313 314 314 314 314 315 315 315 314 314 313 313 313 313 313 313
264 268 271 275 278 281 283 286 289 292 294 297 299 301 303 306 307 308 309 310 311 312 313 314 314 314 315 315 315 315 315 314 314 314 314 314 314 314
265 268 271 275 278 281 283 286 289 292 294 296 298 301 303 305 306 308 309 310 312 312 313 314 315 315 315 315 316 315 315 314 314 314 314 314 314 314
265 268 272 275 278 281 284 287 290 292 295 296 299 301 303 305 307 308 309 310 311 312 313 314 315 315 315 316 316 315 315 315 315 315 315 314 314 314
265 269 272 275 278 281 284 287 290 292 295 297 299 301 303 305 307 308 310 310 312 313 314 314 315 315 316 316 316 316 316 315 315 315 315 314 315 315
265 268 272 275 278 281 284 287 290 292 295 297 300 301 303 305 307 309 309 311 312 313 314 315 315 316 316 316 316 316 316 315 315 315 315 315 316 316
266 268 271 275 278 281 284 287 289 292 295 297 300 302 304 306 307 309 310 311 312 313 315 316 316 316 316 317 317 317 316 316 316 316 316 317 318 318
266 269 272 275 278 281 284 287 289 292 294 297 299 302 304 306 307 309 311 312 313 314 315 316 316 317 317 317 317 317 317 317 317 318 318 319 319 319
267 271 273 276 278 281 283 287 289 292 295 297 300 302 304 306 308 310 311 312 313 314 315 317 317 317 317 318 318 317 318 318 319 319 319 320 320 320
268 271 273 276 279 281 283 287 289 292 295 298 300 302 304 307 309 310 311 313 314 316 317 318 318 318 318 318 318 319 319 320 320 320 320 321 321 321
269 271 274 277 279 281 284 287 290 292 295 298 300 302 305 307 309 310 312 314 316 317 318 318 318 319 319 319 319 320 321 321 322 322 322 322 322 322
268 271 274 277 280 282 284 287 290 293 296 298 300 303 305 307 309 311 313 315 317 318 318 318 319 320 320 320 320 322 323 323 323 323 323 324 324 323
268 271 274 277 279 282 285 288 291 294 296 299 301 304 306 308 310 312 314 316 318 318 319 320 320 321 322 322 322 324 324 324 324 324 325 325 324 324
266 269 273 276 279 283 286 289 292 295 297 300 303 305 307 309 311 313 315 317 318 319 320 321 322 322 323 324 324 325 325 325 326 326 326 326 326 327
265 267 271 275 279 283 286 289 293 296 298 301 303 306 308 310 313 315 317 318 319 319 320 322 323 323 324 325 326 326 326 326 327 327 327 328 329 329
263 267 270 274 279 282 286 289 292 295 298 301 304 307 310 312 314 316 318 319 320 320 321 322 323 324 325 326 327 328 328 328 328 328 329 330 331 332
262 267 271 274 279 283 286 289 292 295 299 302 305 308 311 313 315 317 318 319 320 321 322 323 324 325 326 328 329 329 329 329 330 331 331 332 333 334
263 268 272 275 279 282 285 289 292 296 300 303 307 309 312 314 316 318 319 320 321 321 323 324 325 326 327 328 329 330 330 330 331 332 334 335 335 336
264 267 271 275 279 282 285 289 293 297 301 304 307 310 313 315 317 318 320 321 322 323 324 325 325 326 328 329 330 331 332 332 333 335 336 337 337 338
265 268 271 275 278 281 285 290 294 298 302 306 309 311 314 315 317 319 320 322 323 324 324 325 326 327 328 330 331 333 335 335 336 337 338 339 340 341
265 268 271 275 279 282 286 291 296 300 304 307 309 312 314 316 318 319 321 322 323 324 324 325 326 328 329 331 334 335 337 338 339 340 341 342 343 344
263 267 271 275 279 283 287 292 297 301 304 307 310 313 315 317 318 320 321 322 323 323 325 326 327 329 331 333 335 337 339 340 341 343 345 346 348 351
261 266 271 274 279 283 288 293 298 301 305 308 312 314 316 317 319 320 320 321 323 324 325 326 328 330 332 334 336 338 340 342 344 345 348 351 354 356
Height
5762 5763 5763 5763 5762 5761 5760 5758 5757 5754 5752 5747 5743 5739 5734 5729 5724 5719 5713 5707 5701 5695 5688 5681 5674 5667 5660 5652 5644 5636 5628 5620 5611 5603 5594 5585 5577 5568
5754 5755 5755 5755 5754 5753 5752 5750 5747 5745 5743 5739 5734 5730 5725 5720 5715 5710 5704 5698 5692 5685 5679 5672 5664 5657 5649 5641 5633 5625 5616 5607 5599 5590 5581 5572 5564 5555
5747 5747 5747 5746 5746 5745 5743 5741 5739 5736 5734 5731 5726 5721 5717 5712 5706 5701 5695 5689 5682 5676 5669 5662 5654 5646 5638 5630 5622 5613 5604 5595 5586 5577 5568 5560 5550 5542
5738 5739 5739 5738 5738 5736 5735 5733 5730 5727 5725 5722 5718 5713 5708 5703 5698 5692 5686 5680 5673 5667 5659 5652 5644 5636 5628 5619 5610 5601 5592 5583 5574 5564 5556 5547 5538 5528
5730 5731 5730 5730 5729 5728 5726 5724 5721 5718 5716 5713 5709 5704 5699 5694 5689 5683 5677 5671 5664 5657 5650 5642 5634 5626 5617 5608 5599 5589 5580 5571 5562 5552 5543 5533 5524 5514
5722 5722 5722 5721 5721 5719 5717 5715 5712 5710 5707 5704 5700 5695 5690 5685 5680 5674 5668 5662 5655 5648 5640 5632 5623 5615 5606 5596 5588 5578 5568 5558 5549 5539 5530 5520 5510 5500
5713 5713 5713 5713 5712 5710 5709 5706 5704 5701 5698 5695 5691 5686 5681 5676 5671 5665 5659 5653 5646 5638 5630 5622 5613 5605 5595 5585 5575 5566 5556 5546 5536 5527 5517 5507 5497 5487
5704 5704 5704 5704 5703 5701 5699 5697 5695 5692 5689 5686 5682 5677 5672 5667 5662 5656 5650 5644 5638 5631 5622 5612 5603 5593 5584 5574 5564 5554 5544 5534 5524 5514 5505 5495 5485 5475
5695 5695 5695 5695 5694 5692 5690 5688 5686 5683 5680 5677 5673 5668 5663 5658 5653 5647 5640 5634 5627 5619 5611 5603 5592 5582 5572 5562 5552 5542 5532 5522 5512 5503 5493 5483 5473 5464
5686 5687 5686 5686 5685 5683 5681 5680 5677 5675 5671 5668 5664 5659 5654 5649 5644 5638 5631 5624 5617 5609 5600 5593 5583 5572 5560 5550 5540 5530 5520 5511 5501 5492 5482 5473 5463 5454
5677 5677 5677 5677 5676 5674 5673 5671 5669 5666 5662 5659 5655 5650 5645 5640 5634 5628 5622 5615 5608 5599 5590 5581 5573 5563 5551 5539 5529 5519 5510 5501 5491 5482 5472 5463 5454 5445
5668 5668 5668 5668 5667 5665 5664 5662 5660 5657 5654 5650 5646 5641 5636 5631 5625 5619 5612 5605 5597 5590 5580 5571 5561 5552 5543 5531 5519 5510 5500 5491 5481 5472 5463 5454 5445 5436
5659 5659 5659 5659 5658 5656 5655 5653 5651 5648 5645 5641 5637 5633 5627 5622 5616 5609 5603 5595 5587 5578 5570 5560 5551 5540 5530 5522 5512 5501 5492 5482 5473 5463 5454 5445 5436 5427
5650 5650 5650 5650 5649 5648 5646 5645 5642 5639 5636 5633 5628 5624 5619 5613 5607 5600 5593 5585 5577 5568 5559 5549 5540 5531 5521 5512 5503 5494 5483 5474 5465 5456 5446 5436 5427 5418
5641 5641 5641 5641 5640 5639 5638 5636 5634 5631 5628 5624 5620 5615 5610 5604 5597 5591 5583 5575 5566 5558 5549 5539 5530 5521 5512 5503 5495 5486 5477 5467 5457 5448 5438 5429 5421 5412
5632 5633 5633 5633 5632 5631 5629 5628 5625 5623 5619 5616 5611 5606 5601 5595 5588 5581 5574 5565 5556 5547 5538 5529 5521 5512 5504 5495 5486 5477 5468 5459 5450 5440 5431 5422 5414 5406
5623 5624 5624 5624 5624 5623 5621 5619 5617 5614 5611 5607 5602 5597 5592 5586 5579 5572 5564 5556 5548 5539 5530 5521 5512 5504 5496 5487 5478 5469 5460 5451 5442 5434 5425 5416 5408 5401
5614 5615 5616 5616 5615 5614 5613 5611 5608 5606 5602 5598 5594 5589 5583 5577 5570 5563 5555 5547 5539 5531 5523 5514 5506 5497 5489 5480 5472 5463 5453 5444 5436 5427 5419 5411 5404 5396
5606 5607 5607 5607 5607 5606 5604 5602 5600 5597 5594 5590 5585 5580 5574 5568 5561 5553 5546 5538 5530 5523 5515 5507 5499 5491 5483 5474 5465 5456 5447 5438 5430 5422 5414 5407 5400 5393
5598 5598 5599 5599 5598 5597 5596 5594 5592 5589 5585 5581 5576 5571 5565 5558 5552 5545 5537 5530 5523 5515 5507 5500 5492 5484 5476 5468 5459 5450 5441 5433 5425 5418 5411 5403 5396 5389
5589 5590 5590 5590 5590 5589 5588 5586 5583 5580 5576 5572 5567 5562 5556 5550 5543 5536 5529 5522 5515 5508 5500 5493 5485 5477 5469 5462 5454 5446 5437 5429 5422 5415 5408 5401 5394 5388
5581 5582 5582 5582 5582 5581 5580 5578 5575 5572 5568 5564 5559 5553 5547 5541 5535 5528 5522 5515 5508 5501 5494 5486 5478 5471 5464 5457 5449 5441 5434 5426 5418 5412 5406 5400 5394 5387
5572 5574 5574 5574 5574 5573 5572 5570 5567 5564 5560 5555 5550 5545 5539 5533 5527 5521 5514 5507 5500 5493 5486 5479 5472 5466 5459 5452 5445 5438 5430 5423 5416 5409 5404 5398 5393 5387